Tracking 35274 objects as of 10-Sep-2026
HD Live streaming from Space Station
objects crossing your sky now

FREGAT DEB

Track FREGAT DEB now!
10-day predictions


NORAD ID: 45972
Int'l Code: 2011-037GD
Launch date: July 18, 2011
Source: Commonwealth of Independent States (former USSR) (CIS)
Launch site: TYURATAM MISSILE AND SPACE COMPLEX (TTMTR)

Note: This is SATELLITE DEBRIS
Your satellite tracking list
Your tracking list is empty




NASA's NSSDC Master Catalog

Two Line Element Set (TLE):
1 45972U 11037GD  21187.69258633 -.00002237  00000-0 -11208-1 0  9999
2 45972  51.6152 291.1162 1771020 154.8669 215.0083 10.40004735 36088
Source of the keplerian elements: AFSPC